Theta_e
312 311 311 312 309 314 313 315 316 314 314 315 313 313 313 313 313 313 313 315 315 316 316 316 314 314 314 313 312 312 312 310 309 305 311 311 312 310 309 307 306 306 306 306
311 310 310 310 311 311 312 314 313 313 312 313 312 313 314 313 312 313 314 316 316 315 316 315 314 314 313 313 312 312 312 310 307 306 312 311 312 309 308 307 307 306 306 307
311 313 310 311 312 312 312 312 312 315 313 312 310 312 312 312 313 314 313 313 313 313 314 314 313 313 313 313 313 312 311 309 305 309 312 312 312 309 308 307 307 307 307 310
311 311 312 312 313 312 314 312 312 315 314 313 310 315 308 311 310 311 313 313 313 313 313 312 312 313 313 312 312 311 310 308 304 310 312 312 310 309 309 309 308 308 309 312
310 312 312 313 313 311 314 312 312 313 313 312 311 309 311 309 312 313 312 313 313 313 313 313 312 312 312 312 312 311 309 306 305 311 312 313 309 308 311 314 310 311 311 313
307 309 309 311 309 310 309 310 309 307 308 309 308 310 311 310 313 317 312 312 312 313 312 312 311 311 311 311 311 310 309 304 306 311 312 313 310 309 311 314 314 311 313 314
309 309 309 309 310 310 310 311 308 307 307 312 308 309 312 311 310 311 310 313 312 312 312 312 311 310 310 311 311 309 308 303 307 311 312 313 310 309 310 313 314 314 312 313
309 309 309 308 310 311 309 310 308 307 312 312 309 313 314 311 309 309 311 311 311 312 312 311 311 310 311 311 310 309 307 303 307 312 312 313 311 310 310 312 315 315 313 314
309 309 308 308 308 309 310 311 308 310 301 307 309 308 308 308 307 306 307 310 311 311 311 311 310 310 310 310 310 308 306 303 307 311 312 313 312 310 311 313 315 315 315 315
310 310 307 307 308 307 309 307 310 306 308 310 310 310 310 307 305 303 303 304 308 310 310 310 310 310 310 309 309 308 304 303 307 310 312 311 313 312 311 313 314 315 314 315
309 312 308 307 308 309 309 309 308 308 308 312 313 312 306 302 302 301 301 302 304 309 310 310 310 310 309 309 308 307 304 303 305 308 311 312 312 313 312 313 314 314 315 316
310 312 308 308 306 306 307 308 308 310 309 308 312 310 303 302 301 300 300 300 301 306 307 308 309 309 309 308 308 307 305 303 303 306 309 311 312 312 313 314 313 313 314 315
311 311 311 314 312 307 307 306 307 307 307 309 311 310 302 301 300 298 298 298 298 300 304 305 306 306 307 307 307 306 306 304 303 304 307 310 311 312 312 313 313 314 314 314
311 311 314 314 311 308 308 306 307 309 310 311 310 310 305 301 298 297 296 296 296 297 297 301 303 303 304 306 306 306 305 305 304 303 304 307 310 310 311 312 311 311 313 313
306 311 309 310 310 310 308 308 307 309 309 310 310 309 302 299 296 295 294 294 294 295 296 296 298 300 301 303 305 306 305 304 304 304 303 304 307 309 310 310 311 309 312 312
304 309 308 308 310 309 311 311 311 309 308 307 307 307 297 297 294 294 293 292 292 292 293 294 295 298 299 299 301 303 305 306 305 303 303 303 304 306 308 310 310 309 310 311
305 307 307 308 307 309 311 306 308 310 301 303 309 299 296 296 294 293 293 292 291 291 292 293 294 295 296 297 298 301 303 305 306 305 303 303 303 303 305 307 310 309 309 310
301 305 307 304 304 311 301 297 299 298 295 296 296 295 294 294 293 292 291 291 290 290 291 292 293 295 296 296 298 299 300 302 304 304 303 302 302 303 303 305 306 309 309 308
296 302 304 304 300 304 302 295 297 299 295 294 294 294 293 294 294 293 292 291 290 290 291 291 291 293 294 296 297 297 298 299 301 301 301 301 301 302 303 304 304 305 307 308
299 300 303 297 303 305 297 294 294 295 299 292 292 292 292 294 298 294 291 290 290 290 290 291 292 292 293 294 295 296 297 297 297 299 299 300 301 301 302 302 303 304 305 305
288 296 299 301 303 294 293 292 294 300 294 291 291 291 291 292 292 291 290 289 288 287 287 288 291 292 292 293 293 294 295 296 295 296 296 297 298 300 301 301 302 303 304 304
290 289 291 292 297 298 292 293 294 292 291 290 290 290 289 288 288 288 288 287 286 286 286 286 287 288 290 291 292 294 294 295 295 296 295 296 296 297 298 299 301 302 303 303
289 287 287 293 292 292 292 292 291 290 290 290 290 289 288 286 286 285 284 284 284 284 284 284 284 284 284 287 289 290 291 293 296 296 295 295 295 296 296 297 299 300 301 302
283 286 284 285 284 290 292 291 290 289 289 289 289 288 286 285 284 284 284 283 282 282 282 283 283 283 283 283 283 284 287 290 291 293 295 295 294 294 295 296 296 298 299 300
286 286 284 285 288 290 291 291 290 289 287 287 287 286 285 284 283 282 282 282 282 281 281 281 281 281 282 282 283 283 283 284 286 289 292 293 293 293 294 294 295 295 297 297
286 286 285 284 287 290 291 291 291 289 286 286 286 285 284 283 283 282 282 281 280 280 280 280 280 280 280 280 281 281 282 282 283 284 286 289 292 292 291 291 295 297 296 295
Wind_Speed
4 3 9 12 4 1 4 3 2 2 2 1 6 14 18 21 21 26 26 27 20 15 10 16 22 24 25 25 24 20 16 13 11 10 8 6 7 7 5 5 1 3 5 8
4 7 5 4 4 4 2 2 5 4 2 2 6 16 20 17 16 18 17 17 14 7 7 14 23 26 27 26 24 20 16 12 10 8 7 4 6 4 3 3 3 6 7 14
6 3 5 8 4 5 3 4 2 5 4 2 7 9 7 5 5 14 15 9 6 6 8 17 27 29 28 27 22 18 15 11 9 7 6 4 5 0 4 5 7 9 12 20
5 4 3 4 3 6 2 6 5 3 2 3 4 6 6 7 11 5 14 10 6 5 7 17 27 30 29 24 20 16 14 11 8 7 6 4 2 3 8 8 9 12 16 22
7 3 5 3 5 8 5 3 5 2 3 2 2 2 8 3 8 6 5 1 5 3 5 14 26 29 26 23 18 15 14 11 8 8 6 5 3 8 10 11 12 14 19 20
5 1 3 5 3 5 7 6 7 5 2 2 4 5 6 4 3 4 3 3 3 3 5 12 24 27 24 21 17 15 14 11 8 9 7 6 7 10 11 11 12 14 17 16
1 2 0 2 6 3 4 6 2 4 2 5 3 3 10 8 7 5 9 18 6 4 6 13 24 28 24 21 17 15 14 10 8 9 9 8 8 11 12 12 9 12 15 14
6 3 8 5 6 7 6 7 5 6 4 3 3 5 6 5 7 7 8 11 7 5 6 12 21 25 23 19 16 15 13 10 9 10 11 10 9 13 12 12 10 11 15 13
5 5 1 2 3 6 6 5 6 4 2 3 3 7 12 2 6 10 12 8 5 3 5 10 18 22 20 18 15 14 12 10 10 10 12 12 11 13 14 12 11 9 10 13
0 1 2 1 2 2 4 5 3 2 2 4 3 4 6 10 14 13 17 23 14 5 4 7 14 18 17 16 15 15 13 11 10 11 12 13 13 14 16 15 13 11 10 12
2 3 2 2 5 8 3 3 2 4 5 5 3 5 6 7 9 11 16 28 28 11 5 2 8 12 14 15 16 15 14 12 11 11 13 14 16 16 17 18 16 14 13 13
3 2 4 6 1 2 1 6 6 4 4 3 1 3 4 6 8 17 20 26 31 23 14 5 4 8 12 13 15 16 15 15 12 11 13 15 16 19 19 19 18 16 15 16
6 3 2 2 1 1 4 5 3 3 2 6 5 4 4 9 12 20 21 26 31 28 23 16 7 6 11 13 15 17 17 16 14 14 14 15 18 19 21 22 22 20 19 18
2 3 4 6 1 2 4 4 6 5 3 6 7 3 2 11 12 17 23 26 26 28 29 24 18 14 8 8 13 17 19 19 18 18 17 16 17 18 19 22 24 22 24 23
2 2 1 3 4 3 3 1 4 12 13 6 3 6 3 7 8 12 17 21 27 30 30 29 25 21 18 13 9 12 17 20 21 22 22 19 17 17 19 21 22 23 24 25
2 2 1 3 5 7 5 5 4 3 3 6 5 5 3 7 11 15 18 21 25 28 28 27 25 22 23 22 18 14 12 16 19 24 25 22 21 20 20 22 22 24 25 27
4 3 1 3 2 2 4 4 5 2 5 2 4 3 6 5 10 14 15 17 20 22 25 27 27 26 24 24 23 21 18 14 14 18 21 23 23 24 23 23 24 25 27 29
3 4 1 3 3 2 4 5 2 11 8 8 7 6 6 5 7 10 13 14 17 20 22 25 25 24 24 23 21 19 18 17 12 13 15 19 23 26 26 26 26 27 28 29
6 2 3 2 2 0 3 5 4 3 3 6 5 6 9 11 15 7 15 15 15 18 20 21 22 23 23 23 21 21 18 16 14 13 14 17 21 25 26 28 28 28 31 32
6 7 3 2 2 3 3 4 5 5 2 3 5 7 12 12 3 2 16 17 19 20 21 22 22 22 22 22 22 21 20 19 17 16 17 18 19 22 26 28 28 29 31 33
3 2 3 5 3 2 4 10 2 3 1 2 4 7 10 5 4 12 14 18 20 22 24 24 23 21 22 23 23 22 21 20 20 19 18 19 20 23 24 27 28 29 30 32
1 1 1 2 0 5 8 2 2 2 1 4 6 6 8 10 11 10 14 17 21 23 24 24 24 24 23 22 22 22 21 22 22 21 20 19 19 20 23 26 27 29 30 31
2 3 2 2 3 3 4 6 9 4 2 4 5 7 9 13 14 16 18 18 20 21 21 22 24 24 23 24 24 24 24 24 23 23 22 20 19 18 19 23 25 28 30 32
3 4 2 4 3 3 8 4 5 1 4 7 8 8 11 15 16 17 16 16 17 18 20 22 23 24 25 25 25 25 25 25 26 27 24 23 22 19 18 18 21 24 27 30
6 4 3 4 2 2 7 12 6 7 9 9 9 10 14 14 12 12 13 14 17 19 21 22 24 25 25 26 26 27 28 28 26 25 27 27 27 24 21 17 19 21 24 28
5 5 3 4 3 4 3 9 14 12 12 10 12 15 12 11 11 13 15 17 19 20 22 24 25 25 26 27 27 28 29 30 30 30 26 25 29 30 29 27 24 18 18 21
Wind_Direction
167 135 205 203 175 98 130 174 241 277 10 312 251 273 280 283 275 278 283 290 280 284 274 226 222 214 211 210 214 221 238 251 261 281 283 295 319 331 2 345 9 105 111 138
77 241 199 157 181 235 304 7 290 290 356 193 303 283 284 277 260 266 274 276 290 274 237 214 207 205 206 209 211 220 234 244 257 271 266 281 315 322 48 45 97 119 134 142
170 209 164 160 160 184 217 203 219 232 330 258 330 286 318 296 284 284 272 265 260 271 236 209 199 200 200 204 212 222 232 236 251 255 249 265 304 204 109 100 115 127 139 146
247 279 112 144 177 137 243 201 173 204 65 238 45 287 306 294 304 274 293 239 236 270 221 205 198 194 198 201 209 221 228 231 241 236 231 241 274 145 127 115 124 128 142 152
234 196 187 162 199 158 217 116 138 117 124 6 317 64 271 318 289 298 359 174 201 249 226 204 199 196 194 201 212 221 223 229 233 225 217 226 183 155 144 129 135 138 149 159
218 229 176 197 107 154 146 78 46 54 73 338 239 146 289 247 250 312 344 22 203 218 213 199 198 194 195 200 211 221 222 227 227 219 208 210 178 169 162 153 149 164 169 177
22 216 278 149 87 57 96 92 336 346 10 226 360 94 247 275 284 275 296 296 281 217 205 197 195 195 199 205 213 219 223 230 228 217 205 199 185 177 172 174 172 178 184 188
161 270 169 191 178 175 178 155 164 212 196 244 56 228 248 216 300 296 321 332 301 219 207 207 202 203 206 211 220 222 226 236 232 215 206 200 195 189 183 189 192 186 179 184
162 257 120 133 150 144 177 199 158 97 26 60 226 279 304 88 31 10 352 337 340 274 239 220 208 208 213 219 227 224 228 239 237 219 212 205 204 200 195 192 193 185 181 179
244 259 12 134 124 47 147 173 94 8 201 239 272 276 243 359 350 352 5 4 352 323 275 229 210 212 218 227 230 225 230 240 244 232 222 214 212 206 203 202 202 202 199 192
78 343 338 120 215 167 148 182 146 147 172 182 161 250 356 14 2 0 5 6 5 352 348 267 216 218 224 229 225 232 238 245 248 244 230 222 218 218 211 210 214 218 218 215
189 116 203 204 278 253 258 203 170 161 216 238 188 254 18 42 24 21 17 15 29 36 22 358 276 251 246 239 237 243 248 251 255 254 246 234 228 225 224 220 217 217 221 224
146 201 123 319 296 87 217 193 195 126 99 201 148 234 103 37 27 19 18 18 28 36 39 40 29 324 285 267 262 261 261 262 259 258 255 245 238 234 232 229 227 223 225 223
207 194 208 206 155 110 184 193 189 182 193 220 224 169 348 15 18 5 12 19 23 30 33 33 32 24 354 293 276 273 272 272 267 262 260 256 251 250 245 237 236 230 229 227
73 274 236 276 290 359 32 242 202 217 229 223 259 223 51 22 13 7 14 16 20 21 22 22 20 17 12 3 328 282 271 271 269 266 264 263 262 259 255 250 240 237 231 232
32 314 221 275 250 244 250 239 267 276 285 279 262 256 16 60 32 26 19 19 20 17 15 13 12 12 9 5 359 344 304 271 261 263 266 268 265 262 260 258 253 241 236 233
356 331 335 268 319 165 249 300 255 165 64 12 241 36 10 35 47 28 19 24 19 14 13 12 12 11 6 1 356 350 343 312 274 266 267 267 267 265 263 263 260 251 244 239
329 333 306 273 354 241 119 11 65 91 62 46 53 30 19 7 110 58 33 22 15 11 11 12 10 9 5 359 353 351 344 340 304 271 260 260 265 267 266 263 261 260 255 249
224 320 294 231 221 244 147 15 11 6 80 28 43 12 357 330 183 73 21 12 2 358 358 1 5 3 2 0 356 351 348 342 332 307 288 271 262 257 256 260 263 265 263 258
196 219 255 347 223 244 35 322 315 299 202 20 19 7 360 13 145 45 349 349 348 348 348 347 349 353 355 357 358 354 350 346 337 323 309 296 283 272 264 259 257 261 264 267
353 9 234 238 272 359 310 311 8 182 157 301 356 0 360 20 5 327 330 336 334 337 338 335 335 340 342 343 347 350 349 348 344 336 326 314 299 285 277 269 262 257 258 262
87 54 321 323 353 240 346 339 85 115 319 334 342 344 340 329 328 321 325 325 327 331 335 337 337 334 332 334 332 333 334 336 338 337 335 329 322 306 284 274 267 261 258 257
296 171 208 217 232 197 338 138 131 113 272 320 313 305 313 321 323 323 326 326 330 334 340 344 345 347 347 337 333 329 327 324 322 327 331 332 331 326 308 288 274 266 261 259
303 177 201 31 296 208 154 165 177 233 283 278 285 292 310 314 317 319 324 329 330 337 342 343 344 346 348 349 350 340 328 320 318 316 317 322 327 329 327 313 292 277 268 264
220 148 198 269 296 254 243 236 237 254 300 289 288 295 306 308 311 312 320 322 327 332 336 336 338 340 341 341 344 341 340 335 325 317 313 314 316 318 317 321 319 301 282 272
194 197 161 227 235 218 221 237 237 258 280 280 288 299 300 300 304 309 315 320 322 325 328 330 330 331 333 334 336 335 335 335 333 332 323 313 310 314 316 315 307 299 302 291